[[{"header":{"parameterUnit":"m.s-1","parameterCategory":1,"la1":30.2991,"la2":30.254,"lo1":-89.0895,"lo2":-89.0444,"dy":0.0017,"dx":0.0017,"nx":28,"ny":28,"refTime":"2024-02-27T09:00:00:Z","depth":0,"parameterNumber":2,"parameterNumberName":"U-component_of_WINDS"},"data":[0,0,0,0,0,0,0,0,0,0,0,0,0,0,0,0,0,0,0,0,0,0,0,0,0,0,0,0,0,0,0,0,0,0,0,0,0,0,0,0,0,0,0,0,0,0,0,0,0,0,0,0,0,0,0,0,0,0,-4.9384,-4.9384,0,-4.9406,-4.9406,-4.9406,-4.9296,-4.9293,-4.929,-4.9287,-4.9309,-4.9313,-4.9316,0,0,0,0,0,0,0,0,0,0,0,0,0,-4.9245,-4.9248,-4.9384,-4.9384,-4.9384,-4.9406,-4.9406,-4.9406,-4.9297,-4.9293,-4.9289,-4.9285,-4.9308,-4.9312,-4.9317,0,0,0,0,0,0,0,0,0,0,0,0,0,-4.929,-4.9249,-4.9383,-4.9332,-4.9327,-4.9406,-4.9406,-4.9407,-4.9297,-4.9293,-4.9288,-4.9283,-4.9307,-4.9312,-4.9317,-4.9446,0,0,-4.9334,-4.9336,0,0,0,0,0,0,0,0,-4.9288,-4.9295,-4.9339,-4.9336,-4.9331,-4.9343,-4.9365,-4.942,-4.9299,-4.9309,-4.9287,-4.9281,-4.9325,-4.9328,-4.9343,-4.9447,-4.9448,-4.9334,-4.9338,-4.934,-4.9341,0,0,0,0,0,0,0,-4.9285,-4.9294,-4.9392,-4.934,-4.9335,-4.9307,-4.9308,-4.9375,-4.9343,-4.9308,-4.93,-4.9304,-4.9321,-4.9338,-4.9343,-4.9449,-4.9334,-4.9339,-4.9342,-4.9344,-4.966,-4.9665,0,0,0,0,0,0,-4.9288,-4.9292,-4.9392,-4.9393,-4.9297,-4.9314,-4.9315,-4.9344,-4.9342,-4.9337,-4.9308,-4.9299,-4.9331,-4.9336,-4.9343,-4.9494,-4.934,-4.9345,-4.9348,-4.9655,-4.9661,-4.9666,0,0,0,0,0,0,-4.9286,-4.9298,-4.9391,-4.934,-4.935,-4.9321,-4.9355,-4.9347,-4.9364,-4.9342,-4.9336,-4.9331,-4.9328,-4.9335,-4.9421,-4.9493,-4.9347,-4.9352,-4.9648,-4.9656,-4.9664,-4.9797,0,0,0,0,0,0,-4.9282,-4.9298,-4.9347,-4.9342,-4.9353,-4.947,-4.9359,-4.9351,-4.9373,-4.9361,-4.9362,-4.9358,-4.9324,-4.9414,-4.9427,-4.9498,-4.9356,-4.9642,-4.9652,-4.9661,-4.9786,-4.9808,-4.9827,0,0,0,0,0,-4.9278,-4.9384,-4.935,-4.9363,-4.9414,-4.9474,-4.948,-4.9439,-4.9379,-4.9428,-4.9415,-4.9358,-4.9483,-4.9424,-4.9437,-4.9511,-4.9637,-4.9649,-4.966,-4.9777,-4.9804,-4.9827,0,0,0,0,0,0,-4.9398,-4.9382,-4.9345,-4.9452,-4.9465,-4.9455,-4.9516,-4.9469,-4.95,-4.9487,-4.9435,-4.9436,-4.9531,-4.9529,-4.9464,-4.9635,-4.955,-4.9565,-4.9634,-4.9659,-4.9679,-4.9678,-4.9361,0,0,0,0,0,-4.9437,-4.9487,-4.9471,-4.9567,-4.9576,-4.9545,-4.957,-4.9537,-4.9548,-4.9553,-4.9546,-4.9559,-4.96,-4.9629,-4.9667,-4.9785,-4.9783,-4.9842,-4.9863,-4.988,-4.9894,-4.9955,-4.9981,-4.9704,-4.9704,-4.9704,0,0,-4.9518,-4.9516,-4.9551,-4.9591,-4.9598,-4.9651,-4.955,-4.9611,-4.965,-4.9562,-4.9643,-4.9638,-4.9649,-4.9752,-4.9796,-4.9753,-4.9969,-4.9895,-4.9908,-4.9913,-4.997,-4.9996,-5.002,-4.9712,-4.9711,-4.971,0,0,-4.9694,-4.9697,-4.9778,-4.9786,-4.9796,-4.9775,-4.9795,-4.9791,-4.9785,-4.9865,-4.98,-4.9845,-4.9919,-4.993,-4.9945,-5.0123,-5.0072,-5.0137,-5.0245,-5.0306,-5.0328,-5.0347,-5.0411,-5.0435,-5.015,-5.0151,-5.0151,0,-4.9793,-4.9871,-4.9825,-4.989,-4.991,-4.9833,-4.9914,-4.9924,-4.9947,-4.9962,-4.9913,-5.0003,-5.0005,-5.0109,-5.0153,-5.0167,-5.0188,-5.0137,-5.0329,-5.0347,-5.0364,-5.0425,-5.0449,-5.0159,-5.0158,-5.0157,-5.0156,0,-4.9993,-5.0048,-5.0112,-5.0136,-5.0162,-5.0235,-5.02,-5.0233,-5.0198,-5.0181,-5.0264,-5.0263,-5.0299,-5.0321,-5.0288,-5.0421,-5.0393,-5.0337,-5.025,-5.0399,-5.0455,-5.0478,-5.017,-5.0167,-5.0165,-5.0163,0,0,-5.0246,-5.0243,-5.0267,-5.0277,-5.0283,-5.0324,-5.0393,-5.0428,-5.0457,-5.0475,-5.0532,-5.0595,-5.0543,-5.0561,-5.0527,-5.0581,-5.0723,-5.0518,-5.0517,-5.0556,-5.0869,-5.0912,-5.0939,-5.0688,-5.0693,-5.0696,-5.0868,0,-5.0418,-5.0536,-5.0497,-5.0617,-5.0667,-5.0594,-5.0654,-5.0664,-5.0651,-5.0691,-5.0675,-5.0722,-5.0649,-5.0659,-5.0709,-5.0695,-5.0785,-5.0682,-5.0741,-5.0744,-5.0741,-5.0968,-5.1014,-5.1177,-5.089,-5.0893,-5.0896,0,-5.0635,-5.0661,-5.0787,-5.0784,-5.0803,-5.0858,-5.0887,-5.0926,-5.0936,-5.0922,-5.0941,-5.0896,-5.0963,-5.0876,-5.0968,-5.0898,-5.092,-5.0917,-5.0922,-5.0926,-5.083,-5.098,-5.1227,-5.1252,-5.093,-5.0927,-5.0925,0,-5.0807,-5.0874,-5.0958,-5.0968,-5.0967,-5.1007,-5.1008,-5.1013,-5.1036,-5.1061,-5.1076,-5.1109,-5.1127,-5.1153,-5.1118,-5.1057,-5.1215,-5.1124,-5.1206,-5.1207,-5.1243,-5.1241,-5.1498,-5.1256,-5.1256,-5.1255,-5.1255,0,-5.1004,-5.1084,-5.1035,-5.1087,-5.1174,-5.1127,-5.1214,-5.1207,-5.1212,-5.126,-5.1199,-5.1246,-5.1196,-5.1239,-5.1211,-5.1292,-5.13,-5.1291,-5.1283,-5.1297,-5.1298,-5.1311,-5.1299,-5.1262,-5.126,-5.1259,-5.1258,0,-5.1212,-5.1183,-5.1269,-5.126,-5.126,-5.1324,-5.1316,-5.1363,-5.1345,-5.1407,-5.1419,-5.1391,-5.1437,-5.1405,-5.1451,-5.1433,-5.1538,-5.1514,-5.1535,-5.1529,-5.1612,-5.1605,-5.1887,-5.1921,-5.1657,-5.166,-5.1662,0,-5.134,-5.14,-5.1397,-5.1425,-5.143,-5.1477,-5.15,-5.1456,-5.1483,-5.1498,-5.1544,-5.1585,-5.1615,-5.1693,-5.1676,-5.1711,-5.1688,-5.1784,-5.1692,-5.1705,-5.1689,-5.1687,-5.1692,-5.1803,-5.1806,-5.1808,-5.181,0,-5.157,-5.1553,-5.1589,-5.1621,-5.1651,-5.1674,-5.1692,-5.1718,-5.1674,-5.1707,-5.1754,-5.1778,-5.1825,-5.1866,-5.1895,-5.1895,-5.1846,-5.1839,-5.186,-5.1875,-5.1885,-5.1881,-5.1586,-5.1833,-5.1831,-5.1829,-5.1828,-5.1827,-5.1742,-5.1792,-5.1798,-5.184,-5.1849,-5.1867,-5.1911,-5.1898,-5.1936,-5.1971,-5.1942,-5.1999,-5.2005,-5.2039,-5.2045,-5.2088,-5.2049,-5.2079,-5.2086,-5.2095,-5.2107,-5.1878,-5.2093,-5.2093,-5.2092,-5.2091,-5.2091,0,-5.197,-5.197,-5.2009,-5.2036,-5.207,-5.202,-5.2037,-5.2068,-5.2118,-5.2129,-5.216,-5.2214,-5.2254,-5.224,-5.2275,-5.2312,-5.2291,-5.2323,-5.232,-5.2321,-5.214,-5.2119,-5.234,-5.234,-5.234,-5.234,-5.234,-5.234,-5.2092,-5.2173,-5.2156,-5.2241,-5.224,-5.2294,-5.2308,-5.2324,-5.2333,-5.2395,-5.2428,-5.2419,-5.242,-5.2454,-5.2489,-5.2483,-5.25,-5.2541,-5.2528,-5.2359,-5.2334,-5.2311,-5.229,-5.2545,-5.2545,-5.2705,-5.2707,-5.2708]},{"header":{"parameterUnit":"m.s-1","parameterCategory":1,"la1":30.2991,"la2":30.254,"lo1":-89.0895,"lo2":-89.0444,"dy":0.0017,"dx":0.0017,"nx":28,"ny":28,"refTime":"2024-02-27T09:00:00:Z","depth":0,"parameterNumber":3,"parameterNumberName":"V-component_of_WINDS"},"data":[0,0,0,0,0,0,0,0,0,0,0,0,0,0,0,0,0,0,0,0,0,0,0,0,0,0,0,0,0,0,0,0,0,0,0,0,0,0,0,0,0,0,0,0,0,0,0,0,0,0,0,0,0,0,0,0,0,0,-7.4756,-7.4757,0,-7.4826,-7.4827,-7.4827,-7.4741,-7.4737,-7.4734,-7.4731,-7.4798,-7.4802,-7.4807,0,0,0,0,0,0,0,0,0,0,0,0,0,-7.4541,-7.4545,-7.4756,-7.4757,-7.4758,-7.4826,-7.4827,-7.4828,-7.4741,-7.4737,-7.4733,-7.473,-7.4796,-7.4802,-7.4807,0,0,0,0,0,0,0,0,0,0,0,0,0,-7.4625,-7.4547,-7.4756,-7.4723,-7.472,-7.4826,-7.4827,-7.4828,-7.4742,-7.4737,-7.4732,-7.4728,-7.4794,-7.4801,-7.4808,-7.4947,0,0,-7.483,-7.4833,0,0,0,0,0,0,0,0,-7.462,-7.4633,-7.4727,-7.4725,-7.4723,-7.477,-7.4775,-7.4868,-7.4743,-7.4734,-7.4731,-7.4726,-7.4792,-7.4799,-7.4822,-7.495,-7.4953,-7.483,-7.4835,-7.4838,-7.484,0,0,0,0,0,0,0,-7.4614,-7.4629,-7.4783,-7.4728,-7.4726,-7.4702,-7.4709,-7.4792,-7.4788,-7.4734,-7.4728,-7.4738,-7.479,-7.4816,-7.4823,-7.4954,-7.483,-7.4836,-7.4841,-7.4844,-7.5198,-7.5203,0,0,0,0,0,0,-7.4613,-7.4625,-7.4781,-7.4785,-7.4659,-7.471,-7.4718,-7.4759,-7.4787,-7.4787,-7.4742,-7.4733,-7.4806,-7.4815,-7.4825,-7.4989,-7.4838,-7.4844,-7.4848,-7.5193,-7.52,-7.5205,0,0,0,0,0,0,-7.4609,-7.4628,-7.4778,-7.4704,-7.4721,-7.4719,-7.4767,-7.4763,-7.4789,-7.4793,-7.4791,-7.4769,-7.4802,-7.4815,-7.4918,-7.499,-7.4847,-7.4854,-7.5187,-7.5195,-7.5202,-7.532,0,0,0,0,0,0,-7.4603,-7.4627,-7.4681,-7.4706,-7.4725,-7.4872,-7.4771,-7.4768,-7.4802,-7.4792,-7.4819,-7.4818,-7.48,-7.4907,-7.4925,-7.4998,-7.4859,-7.5181,-7.5191,-7.52,-7.5309,-7.533,-7.5349,0,0,0,0,0,-7.4596,-7.471,-7.4685,-7.4704,-7.4794,-7.4876,-7.4887,-7.4865,-7.4808,-7.4862,-7.4864,-7.4817,-7.498,-7.4919,-7.4937,-7.5014,-7.5176,-7.5188,-7.5199,-7.53,-7.5326,-7.5348,0,0,0,0,0,0,-7.4693,-7.4713,-7.4684,-7.4811,-7.4843,-7.4861,-7.4928,-7.4893,-7.494,-7.4929,-7.4897,-7.4904,-7.5013,-7.5023,-7.4955,-7.5149,-7.5068,-7.5084,-7.5139,-7.5163,-7.5183,-7.5178,-7.4865,0,0,0,0,0,-7.4729,-7.4797,-7.481,-7.492,-7.4937,-7.4931,-7.4966,-7.4946,-7.4977,-7.4989,-7.4999,-7.5029,-7.5087,-7.5126,-7.5179,-7.531,-7.5314,-7.5371,-7.5391,-7.5407,-7.5421,-7.5491,-7.5516,-7.5243,-7.5243,-7.5243,0,0,-7.4804,-7.4824,-7.4868,-7.494,-7.4962,-7.5031,-7.4942,-7.5019,-7.5069,-7.5,-7.5098,-7.5107,-7.5138,-7.5256,-7.5308,-7.5267,-7.5498,-7.5422,-7.5435,-7.544,-7.5505,-7.5531,-7.5554,-7.5251,-7.525,-7.5249,0,0,-7.4977,-7.4999,-7.5093,-7.5118,-7.5153,-7.5148,-7.5171,-7.5195,-7.5198,-7.5297,-7.5246,-7.5304,-7.5405,-7.5429,-7.5455,-7.5636,-7.5594,-7.5654,-7.5757,-7.5825,-7.5847,-7.5865,-7.593,-7.5953,-7.5668,-7.5669,-7.5669,0,-7.5065,-7.5169,-7.5145,-7.5226,-7.5258,-7.5201,-7.5295,-7.5319,-7.537,-7.5393,-7.5347,-7.5472,-7.5489,-7.5611,-7.5655,-7.5678,-7.5702,-7.5651,-7.5846,-7.5864,-7.5882,-7.5943,-7.5967,-7.5676,-7.5675,-7.5674,-7.5673,0,-7.5276,-7.5349,-7.542,-7.5473,-7.5513,-7.56,-7.5587,-7.563,-7.5607,-7.5606,-7.5706,-7.5724,-7.578,-7.5807,-7.5785,-7.5927,-7.59,-7.5851,-7.5769,-7.5915,-7.5972,-7.5995,-7.5686,-7.5683,-7.5681,-7.5679,0,0,-7.5512,-7.5551,-7.5577,-7.56,-7.5635,-7.569,-7.5773,-7.583,-7.5867,-7.5903,-7.5972,-7.6058,-7.6012,-7.6042,-7.6021,-7.6081,-7.6223,-7.6023,-7.6023,-7.606,-7.6379,-7.6416,-7.6444,-7.6195,-7.6199,-7.6203,-7.6376,0,-7.5684,-7.5832,-7.5812,-7.5952,-7.6018,-7.5965,-7.6037,-7.6065,-7.6067,-7.6121,-7.612,-7.6182,-7.6118,-7.6135,-7.6192,-7.6194,-7.6286,-7.6181,-7.6257,-7.626,-7.6251,-7.6474,-7.6513,-7.6676,-7.6398,-7.6402,-7.6405,0,-7.5906,-7.5953,-7.61,-7.6125,-7.6152,-7.6218,-7.6268,-7.6321,-7.6351,-7.6348,-7.6381,-7.6349,-7.643,-7.6347,-7.6458,-7.6387,-7.6416,-7.6422,-7.6428,-7.6434,-7.6341,-7.6485,-7.6727,-7.6752,-7.644,-7.6437,-7.6434,0,-7.6063,-7.6162,-7.6264,-7.6285,-7.6316,-7.6364,-7.6379,-7.6404,-7.644,-7.6482,-7.6505,-7.6556,-7.6584,-7.6623,-7.6606,-7.6547,-7.672,-7.6635,-7.6718,-7.6718,-7.6756,-7.6754,-7.7007,-7.6776,-7.6776,-7.6775,-7.6775,0,-7.6258,-7.635,-7.6335,-7.6397,-7.6498,-7.6474,-7.6574,-7.6582,-7.6605,-7.6667,-7.6622,-7.668,-7.6653,-7.6709,-7.6695,-7.6789,-7.6802,-7.68,-7.6795,-7.6804,-7.6804,-7.6823,-7.6811,-7.6782,-7.678,-7.6779,-7.6778,0,-7.6451,-7.6444,-7.6551,-7.6572,-7.658,-7.6654,-7.6671,-7.6728,-7.6725,-7.6803,-7.682,-7.6816,-7.6879,-7.6865,-7.6934,-7.6925,-7.7042,-7.7023,-7.7033,-7.7028,-7.7112,-7.7104,-7.7385,-7.742,-7.7167,-7.7169,-7.7171,0,-7.6576,-7.6646,-7.6675,-7.6714,-7.6733,-7.6796,-7.6833,-7.6811,-7.685,-7.6889,-7.6942,-7.7001,-7.7048,-7.7151,-7.7152,-7.7204,-7.7186,-7.7281,-7.7193,-7.72,-7.7187,-7.7183,-7.719,-7.7298,-7.7301,-7.7303,-7.7305,0,-7.6798,-7.6792,-7.6847,-7.6901,-7.6946,-7.6987,-7.7023,-7.7057,-7.7038,-7.7083,-7.7149,-7.7185,-7.7256,-7.7315,-7.7363,-7.7376,-7.7338,-7.7333,-7.7355,-7.7365,-7.7367,-7.7367,-7.708,-7.7327,-7.7324,-7.7323,-7.7322,-7.7321,-7.696,-7.702,-7.7051,-7.7113,-7.7139,-7.7174,-7.7229,-7.7234,-7.7289,-7.7346,-7.7329,-7.7403,-7.743,-7.7491,-7.751,-7.7566,-7.753,-7.7561,-7.7569,-7.7578,-7.7588,-7.7359,-7.7574,-7.7573,-7.7573,-7.7572,-7.7572,0,-7.718,-7.7198,-7.7256,-7.7309,-7.7358,-7.7319,-7.7357,-7.74,-7.7467,-7.7496,-7.7543,-7.7617,-7.7675,-7.7681,-7.7734,-7.7778,-7.7762,-7.7793,-7.7789,-7.7793,-7.7617,-7.7593,-7.7805,-7.7805,-7.7805,-7.7805,-7.7805,-7.7805,-7.7301,-7.74,-7.7397,-7.7507,-7.7523,-7.7597,-7.7622,-7.7653,-7.7677,-7.7763,-7.7811,-7.7815,-7.7835,-7.7889,-7.7939,-7.7939,-7.7961,-7.7999,-7.7993,-7.7828,-7.7805,-7.7783,-7.776,-7.8004,-7.8004,-7.8163,-7.8165,-7.8166]}]]